Location: Colonia Mina de C?rbuni
(46.1667°N, 22.7167°E)
Time: 19:29:56
(UTC+00:00)

Explorer 7 - All Passes

Search period start: 19 April 2024 00:00
Search period end: 29 April 2024 00:00
Orbit: 468 x 628 km, 50.3° (Epoch: 19 April)

Date Brightness Start Highest point End Pass type
(mag) Time Alt. Az. Time Alt. Az. Time Alt. Az.
19 Apr - 08:35:58 10° S 08:38:48 16° SE 08:41:40 10° E daylight
19 Apr - 10:13:28 10° SW 10:18:02 65° SSE 10:22:37 10° ENE daylight
19 Apr - 11:53:30 10° W 11:58:03 55° N 12:02:32 10° ENE daylight
19 Apr - 13:33:52 10° WNW 13:38:23 54° N 13:42:46 10° E daylight
19 Apr - 15:13:54 10° WNW 15:18:24 66° SSW 15:22:41 10° SE daylight
19 Apr - 16:55:00 10° W 16:57:33 15° SW 17:00:03 10° SSW daylight
20 Apr - 08:29:09 10° S 08:32:35 21° SE 08:36:03 10° E daylight
20 Apr - 10:07:20 10° WSW 10:11:58 79° SSE 10:16:35 10° ENE daylight
20 Apr - 11:47:32 10° W 11:52:04 52° N 11:56:32 10° ENE daylight
20 Apr - 13:27:51 10° WNW 13:32:24 59° NNE 13:36:48 10° E daylight
20 Apr - 15:07:53 10° WNW 15:12:18 53° SSW 15:16:31 10° SE daylight
20 Apr - 16:49:51 10° WSW 16:51:17 11° SW 16:52:43 10° SSW daylight
21 Apr - 08:22:32 10° SSW 08:26:22 27° SE 08:30:14 10° E daylight
21 Apr - 10:01:15 10° WSW 10:05:53 88° NNW 10:10:31 10° ENE daylight
21 Apr - 11:41:33 10° W 11:46:04 50° N 11:50:31 10° ENE daylight
21 Apr - 13:21:47 10° WNW 13:26:22 66° NNE 13:30:48 10° E daylight
21 Apr - 15:01:52 10° WNW 15:06:09 42° SW 15:10:15 10° SE daylight
22 Apr - 08:16:02 10° SSW 08:20:08 33° SE 08:24:18 10° ENE daylight
22 Apr - 09:55:10 10° WSW 09:59:48 77° NNW 10:04:26 10° ENE daylight
22 Apr - 11:35:32 10° WNW 11:40:03 50° N 11:44:30 10° ENE daylight
22 Apr - 13:15:41 10° WNW 13:20:19 75° NNE 13:24:46 10° ESE daylight
22 Apr - 14:55:51 10° WNW 14:59:57 33° SW 15:03:52 10° SSE daylight
23 Apr - 08:09:38 10° SW 08:13:55 42° SE 08:18:17 10° ENE daylight
23 Apr - 09:49:06 10° W 09:53:42 68° NNW 09:58:18 10° ENE daylight
23 Apr - 11:29:29 10° WNW 11:34:00 50° N 11:38:27 10° E daylight
23 Apr - 13:09:34 10° WNW 13:14:12 86° NNE 13:18:40 10° ESE daylight
23 Apr - 14:49:54 10° W 14:53:41 27° SW 14:57:22 10° SSE daylight
24 Apr - 06:26:59 10° SSE 06:28:40 12° SE 06:30:23 10° ESE daylight
24 Apr - 08:03:17 10° SW 08:07:42 52° SSE 08:12:13 10° ENE daylight
24 Apr - 09:43:02 10° W 09:47:36 61° NNW 09:52:11 10° ENE daylight
24 Apr - 11:23:24 10° WNW 11:27:56 52° N 11:32:24 10° E daylight
24 Apr - 13:03:25 10° WNW 13:08:03 81° SSW 13:12:32 10° ESE daylight
24 Apr - 14:44:00 10° W 14:47:23 21° SW 14:50:41 10° S daylight
25 Apr - 06:19:36 10° S 06:22:18 16° SE 06:25:03 10° E daylight
25 Apr - 07:57:00 10° SW 08:01:29 65° SSE 08:06:05 10° ENE daylight
25 Apr - 09:36:57 10° W 09:41:29 56° N 09:46:03 10° ENE daylight
25 Apr - 11:17:16 10° WNW 11:21:50 55° N 11:26:20 10° E daylight
25 Apr - 12:57:16 10° WNW 13:01:51 67° SSW 13:06:18 10° SE daylight
25 Apr - 14:38:15 10° W 14:41:03 16° SW 14:43:47 10° S daylight
26 Apr - 06:12:38 10° S 06:15:57 20° SE 06:19:19 10° E daylight
26 Apr - 07:50:44 10° WSW 07:55:16 78° SSE 07:59:55 10° ENE daylight
26 Apr - 09:30:52 10° W 09:35:22 52° N 09:39:54 10° ENE daylight
26 Apr - 11:11:07 10° WNW 11:15:42 59° NNE 11:20:14 10° E daylight
26 Apr - 12:51:06 10° WNW 12:55:37 54° SSW 13:00:00 10° SE daylight
26 Apr - 14:32:49 10° WSW 14:34:40 12° SW 14:36:28 10° SSW daylight
27 Apr - 06:05:53 10° SSW 06:09:35 26° SE 06:13:22 10° E daylight
27 Apr - 07:44:30 10° WSW 07:49:03 89° NW 07:53:42 10° ENE daylight
27 Apr - 09:24:45 10° W 09:29:14 50° N 09:33:45 10° ENE daylight
27 Apr - 11:04:55 10° WNW 11:09:32 66° NNE 11:14:06 10° E daylight
27 Apr - 12:44:58 10° WNW 12:49:20 44° SW 12:53:35 10° SE daylight
28 Apr - 05:59:16 10° SSW 06:03:14 32° SE 06:07:19 10° ENE daylight
28 Apr - 07:38:18 10° WSW 07:42:50 77° NNW 07:47:29 10° ENE daylight
28 Apr - 09:18:36 10° WNW 09:23:05 50° N 09:27:35 10° ENE daylight
28 Apr - 10:58:42 10° WNW 11:03:20 75° NNE 11:07:55 10° ESE daylight
28 Apr - 12:38:49 10° WNW 12:43:00 35° SW 12:47:05 10° SSE daylight
